GW5443 Weather Reports


Display with metric or nautical units.
time (UTC)temp
F
wind
direction
speed
MPH
gust
MPH
rain 1hr
in
rain 24hr
in
rain mn
in
humidity
%
barometer
mb
20260506091202 55 0 0.0 0.0 0.00 0.00 0.00 98 1015.0
20260506090703 55 0 0.0 0.0 0.00 0.00 0.00 98 1016.0
20260506090203 55 104 0.0 1.0 0.00 0.00 0.00 98 1016.0
20260506085701 55 0 0.0 0.0 0.00 0.00 0.00 98 1016.0
20260506085201 56 0 0.0 0.0 0.00 0.00 0.00 98 1016.0
20260506084700 56 0 0.0 0.0 0.00 0.00 0.00 98 1016.0
20260506084201 56 0 0.0 0.0 0.00 0.00 0.00 98 1016.0
20260506083702 55 0 0.0 0.0 0.00 0.00 0.00 97 1016.0
20260506083202 55 0 0.0 0.0 0.00 0.00 0.00 97 1016.0
20260506082701 55 0 0.0 0.0 0.00 0.00 0.00 97 1016.0
20260506082201 55 0 0.0 0.0 0.00 0.00 0.00 97 1016.0
20260506081702 55 0 0.0 0.0 0.00 0.00 0.00 97 1016.0
20260506081202 56 0 0.0 0.0 0.00 0.00 0.00 97 1016.0
20260506080702 56 0 0.0 0.0 0.00 0.00 0.00 97 1016.0
20260506080203 56 0 0.0 0.0 0.00 0.00 0.00 97 1016.0
20260506073201 56 0 0.0 0.0 0.00 0.00 0.00 96 1016.0
20260506072233 56 0 0.0 0.0 0.00 0.00 0.00 96 1016.0
20260506071702 56 0 0.0 0.0 0.00 0.00 0.00 96 1016.0
20260506071202 56 0 0.0 0.0 0.00 0.00 0.00 96 1016.0
20260506070703 56 0 0.0 0.0 0.00 0.00 0.00 95 1016.0
20260506070203 56 0 0.0 0.0 0.00 0.00 0.00 95 1016.0
20260506062203 58 0 0.0 0.0 0.00 0.00 0.00 91 1016.0
20260506061700 59 0 0.0 0.0 0.00 0.00 0.00 91 1016.0
20260506061202 59 0 0.0 0.0 0.00 0.00 0.00 90 1016.0
20260506060702 59 0 0.0 0.0 0.00 0.00 0.00 90 1016.0
20260506060201 59 0 0.0 0.0 0.00 0.00 0.00 89 1016.0
20260506051201 61 199 1.0 2.0 0.00 0.00 0.00 86 1017.0
20260506050703 62 156 1.0 2.0 0.00 0.00 0.00 85 1017.0
20260506050201 62 240 1.0 2.0 0.00 0.00 0.00 85 1017.0
20260506044700 62 227 2.0 4.0 0.00 0.00 0.00 84 1017.0
20260506044200 63 215 3.0 4.0 0.00 0.00 0.00 83 1017.0
20260506043703 63 210 1.0 3.0 0.00 0.00 0.00 83 1017.0
20260506043201 63 232 2.0 3.0 0.00 0.00 0.00 83 1017.0
20260506042659 63 193 3.0 4.0 0.00 0.00 0.00 82 1017.0
20260506042202 63 213 1.0 4.0 0.00 0.00 0.00 82 1017.0
20260506041701 63 199 1.0 3.0 0.00 0.00 0.00 82 1017.0
20260506041201 63 243 0.0 2.0 0.00 0.00 0.00 81 1017.0
20260506040700 64 205 3.0 4.0 0.00 0.00 0.00 81 1017.0
20260506040201 64 206 2.0 4.0 0.00 0.00 0.00 80 1017.0
20260506035659 64 200 3.0 5.0 0.00 0.00 0.00 80 1017.0
20260506035200 64 232 1.0 3.0 0.00 0.00 0.00 80 1017.0
20260506034659 64 203 3.0 4.0 0.00 0.00 0.00 80 1017.0
20260506034202 64 201 3.0 5.0 0.00 0.00 0.00 79 1017.0
20260506033700 64 202 4.0 6.0 0.00 0.00 0.00 79 1017.0
20260506033203 65 202 4.0 6.0 0.00 0.00 0.00 78 1017.0
20260506032700 65 201 4.0 7.0 0.00 0.00 0.00 78 1017.0
20260506032200 65 203 3.0 6.0 0.00 0.00 0.00 78 1017.0
20260506031700 65 217 2.0 4.0 0.00 0.00 0.00 78 1017.0
20260506031210 65 186 2.0 5.0 0.00 0.00 0.00 78 1017.0
20260506030700 65 161 3.0 4.0 0.00 0.00 0.00 78 1017.0
20260506030203 65 186 6.0 10.0 0.00 0.00 0.00 78 1018.0
20260506025703 65 193 3.0 5.0 0.00 0.00 0.00 77 1018.0
20260506025201 65 198 3.0 4.0 0.00 0.00 0.00 78 1018.0
20260506024700 65 210 4.0 5.0 0.00 0.00 0.00 78 1018.0
20260506024201 65 183 4.0 6.0 0.00 0.00 0.00 78 1018.0
20260506023700 65 187 2.0 4.0 0.00 0.00 0.00 77 1017.0
20260506023159 65 194 2.0 4.0 0.00 0.00 0.00 77 1017.0
20260506022702 65 161 4.0 5.0 0.00 0.00 0.00 77 1017.0
20260506022201 65 177 3.0 4.0 0.00 0.00 0.00 76 1018.0
20260506021700 65 189 4.0 5.0 0.00 0.00 0.00 77 1018.0
20260506021203 65 205 0.0 2.0 0.00 0.00 0.00 76 1017.0
20260506020702 65 173 3.0 5.0 0.00 0.00 0.00 76 1017.0
20260506020202 66 203 3.0 5.0 0.00 0.00 0.00 75 1017.0
20260506015701 66 193 4.0 5.0 0.00 0.00 0.00 76 1017.0
20260506015159 66 187 5.0 8.0 0.00 0.00 0.00 75 1017.0
20260506014701 66 156 2.0 4.0 0.00 0.00 0.00 75 1017.0
20260506014201 66 173 4.0 5.0 0.00 0.00 0.00 75 1017.0
20260506013701 66 183 4.0 6.0 0.00 0.00 0.00 75 1017.0
20260506013200 66 178 3.0 5.0 0.00 0.00 0.00 75 1017.0
20260506012659 66 191 3.0 5.0 0.00 0.00 0.00 74 1017.0
20260506012201 67 173 3.0 4.0 0.00 0.00 0.00 74 1017.0
20260506011702 67 182 2.0 4.0 0.00 0.00 0.00 74 1017.0
20260506011202 67 179 2.0 4.0 0.00 0.00 0.00 73 1017.0
20260506010702 67 184 3.0 6.0 0.00 0.00 0.00 73 1017.0
20260506010202 67 161 2.0 4.0 0.00 0.00 0.00 72 1017.0
20260506005701 67 187 4.0 7.0 0.00 0.00 0.00 72 1017.0
20260506005202 68 166 4.0 6.0 0.00 0.00 0.00 72 1017.0
20260506004701 68 194 5.0 9.0 0.00 0.00 0.00 71 1017.0
20260506004201 68 183 5.0 9.0 0.00 0.00 0.00 71 1017.0
20260506003701 68 194 3.0 5.0 0.00 0.00 0.00 71 1017.0
20260506003203 68 163 4.0 6.0 0.00 0.00 0.00 70 1017.0
20260506002702 68 188 3.0 5.0 0.00 0.00 0.00 70 1017.0
20260506002201 68 197 6.0 10.0 0.00 0.00 0.00 70 1017.0
20260506001701 69 213 2.0 5.0 0.00 0.00 0.00 70 1017.0
20260506001200 69 209 1.0 3.0 0.00 0.00 0.00 69 1017.0
20260506000702 69 179 1.0 3.0 0.00 0.00 0.00 69 1017.0
20260506000204 69 185 1.0 4.0 0.00 0.00 0.00 68 1017.0
20260505235703 70 198 5.0 9.0 0.00 0.00 0.00 67 1017.0
20260505235203 70 205 5.0 8.0 0.00 0.00 0.00 67 1017.0
20260505234702 70 193 5.0 8.0 0.00 0.00 0.00 66 1017.0
20260505234200 70 176 5.0 7.0 0.00 0.00 0.00 66 1016.0
20260505233701 71 186 5.0 7.0 0.00 0.00 0.00 65 1016.0
20260505233200 71 191 5.0 9.0 0.00 0.00 0.00 65 1016.0
20260505232659 71 195 7.0 9.0 0.00 0.00 0.00 64 1016.0
20260505232200 72 199 3.0 4.0 0.00 0.00 0.00 64 1016.0
20260505231702 72 184 7.0 13.0 0.00 0.00 0.00 64 1016.0
20260505231201 72 173 4.0 7.0 0.00 0.00 0.00 65 1016.0
20260505230702 72 166 4.0 7.0 0.00 0.00 0.00 65 1016.0
20260505230203 72 163 4.0 11.0 0.00 0.00 0.00 64 1016.0
20260505225701 72 197 7.0 11.0 0.00 0.00 0.00 65 1016.0
20260505225200 73 178 3.0 5.0 0.00 0.00 0.00 65 1016.0
20260505224659 73 180 6.0 11.0 0.00 0.00 0.00 64 1016.0
20260505224159 74 192 6.0 14.0 0.00 0.00 0.00 63 1016.0
20260505223659 74 211 4.0 8.0 0.00 0.00 0.00 63 1016.0
20260505223202 74 177 5.0 8.0 0.00 0.00 0.00 63 1016.0
20260505222701 74 160 6.0 8.0 0.00 0.00 0.00 62 1016.0
20260505222200 75 186 7.0 12.0 0.00 0.00 0.00 62 1016.0
20260505221228 75 173 3.0 6.0 0.00 0.00 0.00 61 1016.0
20260505220701 75 180 5.0 8.0 0.00 0.00 0.00 60 1016.0
20260505220202 75 191 8.0 13.0 0.00 0.00 0.00 60 1016.0
20260505215701 75 188 9.0 14.0 0.00 0.00 0.00 60 1016.0
20260505215202 76 190 8.0 12.0 0.00 0.00 0.00 59 1016.0
20260505214700 76 170 8.0 13.0 0.00 0.00 0.00 58 1016.0
20260505214201 76 184 5.0 8.0 0.00 0.00 0.00 57 1016.0
20260505213701 76 178 6.0 11.0 0.00 0.00 0.00 58 1016.0
20260505213203 76 205 6.0 9.0 0.00 0.00 0.00 59 1016.0
20260505212701 77 200 9.0 11.0 0.00 0.00 0.00 57 1016.0
20260505212203 77 179 5.0 9.0 0.00 0.00 0.00 57 1016.0
20260505211703 77 173 7.0 10.0 0.00 0.00 0.00 56 1016.0
20260505211203 76 194 5.0 8.0 0.00 0.00 0.00 57 1016.0
20260505210703 76 196 6.0 10.0 0.00 0.00 0.00 57 1016.0
20260505210204 76 204 4.0 8.0 0.00 0.00 0.00 58 1016.0
20260505205703 77 189 6.0 13.0 0.00 0.00 0.00 57 1016.0
20260505205201 78 191 6.0 10.0 0.00 0.00 0.00 56 1016.0
20260505204703 77 191 7.0 14.0 0.00 0.00 0.00 56 1016.0
20260505204203 77 190 5.0 12.0 0.00 0.00 0.00 55 1016.0
20260505203701 77 203 5.0 10.0 0.00 0.00 0.00 56 1016.0
20260505203203 78 187 9.0 11.0 0.00 0.00 0.00 54 1016.0
20260505202702 78 175 7.0 9.0 0.00 0.00 0.00 54 1016.0
20260505202203 78 186 5.0 9.0 0.00 0.00 0.00 54 1016.0
20260505201703 78 184 5.0 10.0 0.00 0.00 0.00 54 1016.0
20260505201202 78 193 5.0 9.0 0.00 0.00 0.00 54 1016.0
20260505200703 79 191 5.0 9.0 0.00 0.00 0.00 52 1016.0
20260505200204 79 187 7.0 11.0 0.00 0.00 0.00 53 1016.0
20260505195703 79 205 4.0 7.0 0.00 0.00 0.00 54 1016.0
20260505195203 79 202 9.0 13.0 0.00 0.00 0.00 52 1016.0
20260505194701 79 187 5.0 10.0 0.00 0.00 0.00 52 1016.0
20260505194201 80 187 9.0 12.0 0.00 0.00 0.00 50 1017.0
20260505193701 80 210 6.0 10.0 0.00 0.00 0.00 52 1017.0
20260505193202 80 204 6.0 10.0 0.00 0.00 0.00 50 1017.0
20260505192701 81 185 7.0 11.0 0.00 0.00 0.00 50 1017.0
20260505192202 81 247 3.0 5.0 0.00 0.00 0.00 52 1017.0
20260505191701 81 210 5.0 7.0 0.00 0.00 0.00 50 1017.0
20260505191202 81 208 3.0 5.0 0.00 0.00 0.00 50 1017.0
20260505190701 81 205 4.0 7.0 0.00 0.00 0.00 51 1017.0
20260505190200 81 214 5.0 9.0 0.00 0.00 0.00 50 1017.0
20260505185703 81 190 4.0 7.0 0.00 0.00 0.00 51 1017.0
20260505185202 80 217 4.0 7.0 0.00 0.00 0.00 51 1017.0
20260505184701 80 183 7.0 11.0 0.00 0.00 0.00 51 1017.0
20260505184203 80 194 9.0 12.0 0.00 0.00 0.00 49 1017.0
20260505183702 81 167 6.0 9.0 0.00 0.00 0.00 48 1017.0
20260505183203 80 190 6.0 11.0 0.00 0.00 0.00 48 1017.0
20260505182701 80 183 2.0 5.0 0.00 0.00 0.00 49 1017.0
20260505182200 80 194 6.0 11.0 0.00 0.00 0.00 49 1017.0
20260505181701 80 198 6.0 10.0 0.00 0.00 0.00 50 1017.0
20260505181201 80 165 9.0 14.0 0.00 0.00 0.00 49 1017.0
20260505180701 79 227 6.0 10.0 0.00 0.00 0.00 50 1017.0
20260505180201 79 183 7.0 10.0 0.00 0.00 0.00 49 1018.0
20260505175700 78 204 5.0 8.0 0.00 0.00 0.00 52 1018.0
20260505175204 79 212 4.0 8.0 0.00 0.00 0.00 53 1017.0
20260505174702 78 217 4.0 9.0 0.00 0.00 0.00 52 1017.0
20260505174204 79 211 5.0 8.0 0.00 0.00 0.00 52 1018.0
20260505173704 79 190 5.0 9.0 0.00 0.00 0.00 50 1018.0
20260505173204 79 173 5.0 9.0 0.00 0.00 0.00 51 1018.0
20260505172704 79 187 6.0 9.0 0.00 0.00 0.00 51 1018.0
20260505172203 79 178 4.0 7.0 0.00 0.00 0.00 52 1018.0
20260505171704 79 184 6.0 10.0 0.00 0.00 0.00 53 1018.0
20260505171202 79 197 3.0 5.0 0.00 0.00 0.00 54 1018.0
20260505170702 78 203 5.0 9.0 0.00 0.00 0.00 53 1018.0
20260505170159 78 224 4.0 8.0 0.00 0.00 0.00 54 1018.0
20260505165702 78 203 4.0 6.0 0.00 0.00 0.00 55 1018.0
20260505165201 78 182 8.0 10.0 0.00 0.00 0.00 53 1018.0
20260505164702 78 250 2.0 4.0 0.00 0.00 0.00 57 1018.0
20260505164201 78 192 6.0 9.0 0.00 0.00 0.00 55 1018.0
20260505163703 78 182 6.0 9.0 0.00 0.00 0.00 55 1018.0
20260505163202 78 198 5.0 9.0 0.00 0.00 0.00 55 1018.0
20260505162702 77 207 4.0 7.0 0.00 0.00 0.00 55 1018.0
20260505162201 77 174 5.0 9.0 0.00 0.00 0.00 55 1018.0
20260505161702 77 206 7.0 9.0 0.00 0.00 0.00 55 1019.0
20260505161201 77 205 7.0 9.0 0.00 0.00 0.00 55 1019.0
20260505160701 76 190 4.0 9.0 0.00 0.00 0.00 57 1019.0
20260505160201 76 252 2.0 5.0 0.00 0.00 0.00 57 1019.0
20260505153202 75 190 6.0 8.0 0.00 0.00 0.00 57 1019.0
20260505152703 76 176 6.0 10.0 0.00 0.00 0.00 57 1019.0
20260505152202 76 216 6.0 9.0 0.00 0.00 0.00 57 1019.0
20260505151704 75 176 4.0 7.0 0.00 0.00 0.00 58 1019.0
20260505151203 75 186 4.0 7.0 0.00 0.00 0.00 58 1019.0
20260505150701 75 176 6.0 9.0 0.00 0.00 0.00 59 1019.0
20260505150201 75 193 6.0 10.0 0.00 0.00 0.00 57 1019.0
20260505140202 73 182 4.0 6.0 0.00 0.00 0.00 63 1019.0
20260505130204 68 223 4.0 8.0 0.00 0.00 0.00 71 1019.0
20260505124701 67 175 4.0 5.0 0.00 0.00 0.00 73 1019.0
20260505124202 66 184 3.0 6.0 0.00 0.00 0.00 74 1019.0
20260505123703 66 188 4.0 5.0 0.00 0.00 0.00 75 1019.0
20260505123202 65 202 3.0 5.0 0.00 0.00 0.00 75 1019.0
20260505122702 65 168 4.0 7.0 0.00 0.00 0.00 76 1019.0
20260505122204 64 174 1.0 3.0 0.00 0.00 0.00 77 1019.0
20260505121702 64 164 4.0 7.0 0.00 0.00 0.00 77 1019.0
20260505121204 64 191 3.0 6.0 0.00 0.00 0.00 78 1019.0
20260505120702 63 153 3.0 4.0 0.00 0.00 0.00 79 1019.0
20260505120204 62 161 2.0 3.0 0.00 0.00 0.00 80 1019.0
20260505115701 62 198 3.0 4.0 0.00 0.00 0.00 80 1019.0
20260505115202 62 207 3.0 5.0 0.00 0.00 0.00 82 1019.0
20260505114701 61 201 2.0 4.0 0.00 0.00 0.00 82 1018.0
20260505114200 60 196 2.0 3.0 0.00 0.00 0.00 83 1018.0
20260505113701 60 211 4.0 5.0 0.00 0.00 0.00 84 1018.0
20260505113202 59 176 2.0 3.0 0.00 0.00 0.00 85 1018.0
20260505112702 58 194 2.0 3.0 0.00 0.00 0.00 87 1018.0
20260505112202 57 194 3.0 4.0 0.00 0.00 0.00 90 1018.0
20260505111701 56 164 0.0 2.0 0.00 0.00 0.00 94 1018.0
20260505111203 55 187 2.0 4.0 0.00 0.00 0.00 96 1018.0
20260505110703 54 176 2.0 4.0 0.00 0.00 0.00 97 1018.0
20260505110204 53 171 1.0 3.0 0.00 0.00 0.00 98 1018.0
20260505102202 50 0 0.0 0.0 0.00 0.00 0.00 98 1018.0
20260505101701 50 0 0.0 0.0 0.00 0.00 0.00 98 1017.0
20260505101202 50 0 0.0 0.0 0.00 0.00 0.00 97 1017.0
20260505100702 51 0 0.0 0.0 0.00 0.00 0.00 97 1017.0
20260505100202 51 0 0.0 0.0 0.00 0.00 0.00 97 1017.0
20260505095702 51 0 0.0 0.0 0.00 0.00 0.00 97 1017.0
20260505095201 51 0 0.0 0.0 0.00 0.00 0.00 97 1017.0
20260505094701 51 0 0.0 0.0 0.00 0.00 0.00 97 1017.0
20260505094201 51 0 0.0 0.0 0.00 0.00 0.00 97 1017.0
20260505093659 51 0 0.0 0.0 0.00 0.00 0.00 97 1017.0
20260505093201 51 0 0.0 0.0 0.00 0.00 0.00 97 1017.0
20260505092701 51 0 0.0 0.0 0.00 0.00 0.00 97 1017.0
20260505092201 51 0 0.0 0.0 0.00 0.00 0.00 96 1017.0
20260505091701 51 0 0.0 0.0 0.00 0.00 0.00 96 1017.0